Simultaneous Nadir Overpasses (SNOs) Predictions

Prediction of SNOs over PacNW region [( 10.00, 139.50) to ( 22.70, 165.60)] between AQUA and NPP Satellites:

Table of predicted SNOs over PacNW region for the next 30.0 days since TLE Epoch: 4/5/2013
Index Date (AQUA) Time (AQUA) AQUA Lat,Lon Date (NPP) Time (NPP) NPP Lat,Lon Distance(km) Time Diff (sec)
1 04/11/2013 15:11:22 21.01, 159.34 04/11/2013 15:10:54 21.53, 156.68 281.81 28
2 04/19/2013 16:00:24 22.63, 147.37 04/19/2013 16:01:14 23.31, 144.43 310.49 50
3 04/27/2013 15:11:12 21.62, 159.53 04/27/2013 15:10:55 22.13, 156.82 285.16 17




NCC Satellite Simultaneous Nadir Overpasses (SNOs) Prediction Service
